Regional Weather Roundup
Issued by NWS

Home | Current Version | Previous Version | Text Only | Print | Product List | Glossary Off
Versions: 1 2 3 4 5 6 7 8 9 10 11 12 13 14 15 16 17 18 19 20 21 22 23 24 25 26 27 28 29 30 31 32 33 34 35 36 37 38 39 40 41 42 43 44 45 46 47 48 49 50

000
ASUS43 KDTX 201910
RWRMI
MICHIGAN HOURLY REGIONAL WEATHER ROUNDUP
NATIONAL WEATHER SERVICE DETROIT/PONTIAC MI
300 PM EDT SAT SEP 20 2014

NOTE: "FAIR" INDICATES FEW OR NO CLOUDS BELOW 12,000 FEET WITH NO
SIGNIFICANT WEATHER AND/OR OBSTRUCTION TO VISIBILITY.

MIZ047>049-052>055-059>063-066>070-074>076-081>083-202000-
SOUTHEAST LOWER MICHIGAN

CITY           SKY/WX    TMP DP  RH WIND       PRES   REMARKS
ADRIAN         MOSUNNY   80  60  50 SW18G30   29.89F
ALMA           PTSUNNY   74  63  66 SW15G21   29.79F
ANN ARBOR      PTSUNNY   78  59  51 SW18G26   29.86F
BAD AXE        PTSUNNY   74  63  66 SW17G26   29.79F
CARO           MOSUNNY   77  63  62 SW17G26   29.79F
DETROIT CITY   MOSUNNY   80  60  50 SW20G28   29.85S
DETROIT        PTSUNNY   80  61  52 SW21G29   29.87F
FLINT          PTSUNNY   78  63  59 SW13G22   29.83F
GROSSE ILE     SUNNY     79  61  53 SW13      29.86F
HILLSDALE      PTSUNNY   78  61  56 SW8G17    29.89F
HOWELL         PTSUNNY   76  62  62 SW15G22   29.84F

CITY           SKY/WX    TMP DP  RH WIND       PRES   REMARKS
JACKSON        PTSUNNY   77  62  59 SW13G22   29.86F
LAMBERTVILLE   SUNNY     81  59  47 SW10G21   29.88F
LANSING        PTSUNNY   78  64  61 SW20G25   29.83F
LAPEER         CLOUDY    76  60  57 SW15      29.83F
MASON          PTSUNNY   76  63  62 SW12G17   29.85F
MONROE         SUNNY     81  61  50 SW13G20   29.85F
MT. CLEMENS    PTSUNNY   79  61  53 SW15G26   29.83S
PONTIAC        PTSUNNY   74  60  61 SW17G25   29.85F
PORT HOPE        N/A     76  60  57 SW12G25   29.75F
PORT HURON     MOSUNNY   73  63  68 S14       29.84F
TRI CITIES     MOSUNNY   77  61  57 S15G25    29.77F
TROY           MOSUNNY   79  58  49 SW15      29.86F
SAGINAW HB     MOSUNNY   77  59  53 SW15G29   29.77F
$$
MIZ043>046-050>051-056>058-064>065-071>073-077>080-202000-
SOUTHWEST LOWER MICHIGAN

CITY           SKY/WX    TMP DP  RH WIND       PRES   REMARKS
BATTLE CREEK   CLOUDY    79  63  57 SW21G28   29.85F
BENTON HARBOR  CLOUDY    75  64  68 W17G25    29.86R
BIG RAPIDS     SUNNY     75  65  70 SW12G23   29.76S
COLDWATER      LGT RAIN  74  65  75 SW7G18    29.88S
FREMONT        MOCLDY    71  60  68 SW18G28   29.78S HAZE
HOLLAND        LGT RAIN  72  65  78 SW23G31   29.82F
GRAND RAPIDS   LGT RAIN  75  67  76 SW10      29.81F
IONIA          FAIR      76  63  64 SW17G28   29.80F
KALAMAZOO      PTSUNNY   81  64  56 SW18G25   29.84F
LUDINGTON      CLOUDY    67  62  84 SW18G24   29.74F
MARSHALL       PTSUNNY   77  63  61 MISG      29.86S
MOUNT PLEASANT PTSUNNY   78  63  59 SW22G28   29.75F
MUSKEGON       LGT RAIN  66  61  84 S14       29.80F
SOUTH HAVEN    CLOUDY    74  65  73 SW16      29.85R
$$
MIZ016>042-202000-
NORTHERN LOWER MICHIGAN

CITY           SKY/WX    TMP DP  RH WIND       PRES   REMARKS
ALPENA         PTSUNNY   70  60  70 S10       29.68F
BEAVER ISLAND  MOSUNNY   68  62  82 SW20G25   29.62F
BELLAIRE       CLOUDY    69  61  76 S6        29.69S
CADILLAC       HVY RAIN  68  63  85 SW9G21    29.74S
CHARLEVOIX     CLOUDY    69  63  81 SW14G21   29.69S
FRANKFORT      LGT RAIN  66  60  82 SW8G21    29.71F
GAYLORD        RAIN      64  62  93 SW14      29.72R FOG
GRAYLING       CLOUDY    72  64  78 CALM      29.73S
HARBOR SPRINGS RAIN      68  62  82 SW9       29.66S
HOUGHTON LAKE  LGT RAIN  69  61  75 SW9       29.72F
MANISTEE       CLOUDY    68  61  77 SW10G20   29.73S
OSCODA         LGT RAIN  71  60  68 S8G16     29.70F
PELLSTON       RAIN      68  62  81 SW15G22   29.65F
ROGERS CITY    CLOUDY    73  65  75 SW13G20   29.65S
TRAVERSE CITY  LGT RAIN  68  63  84 SW6       29.69S
$$
MIZ007>008-015-202000-
EASTERN UPPER MICHIGAN

CITY           SKY/WX    TMP DP  RH WIND       PRES   REMARKS
KINROSS        CLOUDY    64  63  94 SW9       29.62S
MACKINAC ISLAN CLOUDY    66  63  87 SW16      29.63S
NEWBERRY       CLOUDY    65  60  85 SW15G22   29.60R
S. S. MARIE    CLOUDY    67  61  81 SW18      29.59S
MUNISING         N/A     69  58  67 N12G26    29.61S
$$
MIZ004>006-011>014-085-202000-
CENTRAL UPPER MICHIGAN

CITY           SKY/WX    TMP DP  RH WIND       PRES   REMARKS
MANISTIQUE     MOSUNNY   64  60  87 SW13G21   29.59S
ESCANABA       MOSUNNY   79  59  50 W18       29.58F
MENOMINEE      CLOUDY    73  63  68 W8        29.63F
SAWYER-GWINN   MOSUNNY   72  55  56 W22G33    29.65R
$$
MIZ001>003-009>011-084-202000-
WESTERN UPPER MICHIGAN

CITY           SKY/WX    TMP DP  RH WIND       PRES   REMARKS
IRON MOUNTAIN  PTSUNNY   75  56  51 NW26G35   29.64F
HOUGHTON       CLOUDY    65  55  70 W17       29.65
COPPER HARBOR    N/A     62  54  74 N18G30    29.61R
IRONWOOD       PTSUNNY   64  57  77 NW17      29.69F
$$

ABBREVIATIONS USED IN REMARKS
   TC - TEMPERATURE IN CELSIUS
  WCI - WIND CHILL INDEX
   HX - HEAT INDEX
  VSB - VISIBILITY



USA.gov is the U.S. government's official web portal to all federal, state and local government web resources and services.